sat.trackr.live / text

‹ back to catalog

BEIDOU-3 M26 (C48)

NORAD 58655 · 2023-207B

PAYLOAD ACTIVE UNKNOWN

§ Identity

Operator
Country
PRC
Launch date
2023-12-26
Launch site
XICLF
Launch vehicle
Mass (kg)
RCS (m²)

Purposes: nav

External: N2YO · Heavens-Above · Gunter

§ Orbital elements

Epoch: 2026-05-23T22:24:23.755392Z

Period
773.24 min
Inclination
55.7344°
Eccentricity
0.0004046
Mean motion
1.86229715 rev/d
Perigee alt
21,516.9 km
Apogee alt
21,539.5 km
Semi-major
27,906.3 km
B*
0.0000e+0
RAAN
63.1076°
Arg perigee
313.4970°
Mean anomaly
46.4649°
Rev number
1,637

§ Raw data

BEIDOU-3 M26 (C48)1 58655U 23207B   26143.93360828 -.00000066  00000+0  00000+0 0  99992 58655  55.7344  63.1076 0004046 313.4970  46.4649  1.86229715 16374

JSON: /api/v1/satellites/58655 · /tle

For live sub-satellite position, see the globe view (requires WebGL).

§ Visibility from observer

Set your observer location to see the next 7 days of passes ≥ 10°. The values pass through the URL so the page stays shareable.

No JS? Fill the form by hand. The geolocation button needs JavaScript.